Location: Canet
(43.3261°N, 5.3723°E)
Time: 19:51:44
(UTC+00:00)

Envisat - Pass Details

Date: 04 October 2021
Orbit: 764 x 766 km, 98.2° (Epoch: 27 October)

Event Time Altitude Azimuth Distance (km) Brightness Sun altitude
Rises 05:01:58 0° 11° (N) 3,241 6.4 -7.6°
Reaches altitude 10° 05:04:17 10° 10° (N) 2,310 5.6 -7.2°
Maximum altitude 05:09:22 75° 286° (WNW) 795 3.0 -6.3°
Drops below altitude 10° 05:14:24 10° 201° (SSW) 2,293 5.3 -5.4°
Sets 05:16:42 0° 200° (SSW) 3,215 6.0 -5.0°
